Amateur Radio Satellites - All Passes

Search period start: 18 June 2013 23:18
Search period end: 19 June 2013 23:18
Location: Gunnison Valley Observatory, 38.5087°N, 106.9386°W

Satellite Date Start Highest point End Downlink Frequencies (MHz)
Time Altitude Azimuth
RS-15 18 Jun 23:46:26 23:53:40 21° 260° (W) 00:00:53 29.354 - 29.394 USB, Beacon 29.352 USB
Saudisat 1A 18 Jun 23:48:34 23:52:22 25° 311° (NW) 23:56:11 436.775 MHz
ISS 19 Jun 00:11:38 00:14:10 21° 229° (SW) 00:16:41 145.800 FM
PCSat 19 Jun 00:27:52 00:32:20 27° 108° (ESE) 00:36:51 145.825 MHz
PANSAT 19 Jun 00:41:31 00:44:04 17° 187° (S) 00:46:38 not established
SO-50 19 Jun 00:46:02 00:49:32 21° 111° (ESE) 00:53:01 436.795 FM
Sapphire 19 Jun 01:01:30 01:06:42 52° 113° (ESE) 01:11:58 437.095 MHz 1200 baud AX-25 AFSK
KITSAT 1 19 Jun 01:34:12 01:40:54 27° 43° (NE) 01:47:34 435.175 FM
Oscar 16 19 Jun 01:58:05 02:02:02 22° 94° (E) 02:05:56 437.025 USB, Beacon 2401.1428
PCSat 19 Jun 02:10:31 02:15:33 39° 305° (NW) 02:20:39 145.825 MHz
Uribyol 2 19 Jun 02:10:48 02:14:43 21° 94° (E) 02:18:35 436.500 FM
SO-50 19 Jun 02:25:19 02:29:52 44° 306° (NW) 02:34:23 436.795 FM
Sapphire 19 Jun 02:46:13 02:50:26 23° 311° (NW) 02:54:42 437.095 MHz 1200 baud AX-25 AFSK
Oscar 19 19 Jun 02:51:24 02:56:30 64° 101° (ESE) 03:01:33 437.125 CW, 437.150 USB
ITAMSAT 1 19 Jun 03:15:30 03:20:46 86° 104° (ESE) 03:25:59 435.822 SSB
AO-27 19 Jun 03:16:32 03:21:48 90° 321° (NW) 03:27:02 436.795 MHz FM
KITSAT 1 19 Jun 03:28:58 03:37:06 76° 244° (WSW) 03:45:10 435.175 FM
Oscar 16 19 Jun 03:36:45 03:41:31 40° 290° (WNW) 03:46:16 437.025 USB, Beacon 2401.1428
Uribyol 2 19 Jun 03:49:27 03:54:22 43° 289° (WNW) 03:59:15 436.500 FM
AO-Echo 19 Jun 03:56:29 04:01:40 83° 103° (ESE) 04:06:57 ?
UOSAT-12 19 Jun 04:07:43 04:12:02 48° 116° (ESE) 04:16:24 437.025 FM, 437.400 FM
TMSAT-1 19 Jun 04:10:35 04:14:55 25° 95° (E) 04:19:12 436.925 FM
Uosat F 19 Jun 04:16:02 04:20:53 45° 99° (E) 04:25:42 435.120 FM
AO-7 19 Jun 04:30:49 04:35:24 16° 90° (E) 04:39:57 29.400 - 29.500 MHz
Oscar 19 19 Jun 04:32:27 04:35:18 15° 298° (WNW) 04:38:09 437.125 CW, 437.150 USB
Gurwin Techsat 1B 19 Jun 04:50:06 04:55:27 89° 104° (ESE) 05:00:46 435.225 FM
ITAMSAT 1 19 Jun 04:57:44 04:59:30 12° 300° (WNW) 05:01:16 435.822 SSB
AO-27 19 Jun 04:59:04 05:00:32 11° 301° (WNW) 05:01:59 436.795 MHz FM
KITSAT 1 19 Jun 05:27:59 05:31:07 13° 261° (W) 05:34:16 435.175 FM
AO-Echo 19 Jun 05:37:47 05:39:46 12° 298° (WNW) 05:41:45 ?
STRAND 1 19 Jun 05:42:34 05:46:26 22° 65° (ENE) 05:50:20 ?
UOSAT-12 19 Jun 05:49:07 05:52:27 20° 314° (NW) 05:55:49 437.025 FM, 437.400 FM
TMSAT-1 19 Jun 05:50:02 05:54:55 38° 290° (WNW) 05:59:46 436.925 FM
Uosat F 19 Jun 05:55:41 05:59:21 21° 295° (WNW) 06:03:01 435.120 FM
AO-7 19 Jun 06:20:46 06:29:12 86° 108° (ESE) 06:37:34 29.400 - 29.500 MHz
MaSat-1 19 Jun 06:29:32 06:31:26 19° 251° (WSW) 06:33:23 437.345 MHz
Gurwin Techsat 1B 19 Jun 06:32:59 06:34:38 11° 300° (WNW) 06:36:16 435.225 FM
Saudisat 1A 19 Jun 06:37:22 06:40:58 22° 47° (NE) 06:44:29 436.775 MHz
STRAND 1 19 Jun 07:20:31 07:25:20 42° 261° (W) 07:30:13 ?
JAS-1B 19 Jun 07:26:16 07:30:30 19° 95° (E) 07:35:04 435.800 - 435.900 CW/SSB
Hamsat 19 Jun 07:30:08 07:33:58 29° 96° (E) 07:37:45 145.90 MHz
AO-7 19 Jun 08:15:09 08:20:57 21° 306° (NW) 08:26:45 29.400 - 29.500 MHz
Saudisat 1A 19 Jun 08:16:34 08:20:49 41° 245° (WSW) 08:24:57 436.775 MHz
SO-67 19 Jun 08:26:29 08:29:51 37° 98° (E) 08:33:12 435.3500 MHz FM
Hamsat 19 Jun 09:06:26 09:09:52 23° 291° (WNW) 09:13:17 145.90 MHz
JAS-1B 19 Jun 09:15:40 09:21:24 56° 288° (WNW) 09:27:55 435.800 - 435.900 CW/SSB
PCSat 19 Jun 09:17:11 09:21:00 19° 47° (NE) 09:24:48 145.825 MHz
SO-50 19 Jun 09:19:27 09:22:03 15° 43° (NE) 09:24:38 436.795 FM
RS-15 19 Jun 09:48:11 09:53:04 13° 96° (E) 09:57:52 29.354 - 29.394 USB, Beacon 29.352 USB
HO-68 19 Jun 09:50:20 09:56:42 33° 97° (E) 10:03:01 435.675 MHz FM
Sapphire 19 Jun 09:51:06 09:55:58 32° 53° (NE) 10:00:47 437.095 MHz 1200 baud AX-25 AFSK
JAS-2 19 Jun 10:00:08 10:04:41 28° 95° (E) 10:09:04 435.800 - 435.900 CW/SSB, 435.910 FM
SO-67 19 Jun 10:01:30 10:02:55 12° 293° (WNW) 10:04:21 435.3500 MHz FM
Oscar 11 19 Jun 10:46:17 10:50:37 56° 100° (E) 10:54:53 145.825 FM, Beacon 2401.500 USB
SO-50 19 Jun 10:58:40 11:03:11 71° 241° (WSW) 11:07:37 436.795 FM
PCSat 19 Jun 10:59:32 11:04:55 67° 246° (WSW) 11:10:17 145.825 MHz
OPAL 19 Jun 11:27:26 11:32:00 36° 100° (E) 11:36:34 ?
Sapphire 19 Jun 11:34:30 11:39:22 34° 250° (WSW) 11:44:13 437.095 MHz 1200 baud AX-25 AFSK
HO-68 19 Jun 11:37:43 11:44:27 45° 294° (WNW) 11:51:11 435.675 MHz FM
JAS-2 19 Jun 11:45:09 11:49:48 31° 293° (WNW) 11:54:16 435.800 - 435.900 CW/SSB, 435.910 FM
RS-15 19 Jun 11:51:27 12:03:22 69° 115° (ESE) 12:14:47 29.354 - 29.394 USB, Beacon 29.352 USB
Oscar 11 19 Jun 12:24:20 12:26:20 13° 296° (WNW) 12:28:20 145.825 FM, Beacon 2401.500 USB
UOSAT-12 19 Jun 12:38:52 12:42:56 30° 50° (NE) 12:46:59 437.025 FM, 437.400 FM
ITAMSAT 1 19 Jun 12:56:00 12:58:32 14° 61° (ENE) 13:01:04 435.822 SSB
AO-27 19 Jun 12:56:55 12:59:39 15° 61° (ENE) 13:02:23 436.795 MHz FM
OPAL 19 Jun 13:06:43 13:10:42 25° 295° (WNW) 13:14:42 ?
Oscar 16 19 Jun 13:13:43 13:18:06 29° 68° (ENE) 13:22:29 437.025 USB, Beacon 2401.1428
Uribyol 2 19 Jun 13:27:18 13:31:43 28° 67° (ENE) 13:36:08 436.500 FM
RS-15 19 Jun 14:05:47 14:16:35 39° 318° (NW) 14:27:02 29.354 - 29.394 USB, Beacon 29.352 USB
Oscar 19 19 Jun 14:06:51 14:12:01 79° 75° (ENE) 14:17:12 437.125 CW, 437.150 USB
UOSAT-12 19 Jun 14:19:02 14:23:03 30° 247° (WSW) 14:27:03 437.025 FM, 437.400 FM
ITAMSAT 1 19 Jun 14:32:11 14:37:23 74° 258° (WSW) 14:42:37 435.822 SSB
Gurwin Techsat 1B 19 Jun 14:32:52 14:35:48 15° 62° (ENE) 14:38:44 435.225 FM
AO-27 19 Jun 14:33:22 14:38:33 70° 258° (WSW) 14:43:47 436.795 MHz FM
Oscar 16 19 Jun 14:52:45 14:57:21 32° 263° (W) 15:01:58 437.025 USB, Beacon 2401.1428
Uribyol 2 19 Jun 15:06:23 15:11:04 33° 263° (W) 15:15:47 436.500 FM
AO-Echo 19 Jun 15:08:27 15:13:09 89° 80° (E) 15:17:59 ?
ISS 19 Jun 15:15:55 15:18:40 25° 133° (SE) 15:21:27 145.800 FM
Uosat F 19 Jun 15:27:59 15:32:51 53° 72° (ENE) 15:37:44 435.120 FM
AO-7 19 Jun 15:28:21 15:34:18 22° 54° (NE) 15:40:16 29.400 - 29.500 MHz
TMSAT-1 19 Jun 15:29:58 15:34:41 34° 69° (ENE) 15:39:26 436.925 FM
Oscar 19 19 Jun 15:50:42 15:51:55 11° 270° (W) 15:53:08 437.125 CW, 437.150 USB
KITSAT 1 19 Jun 16:03:45 16:08:38 18° 101° (E) 16:13:32 435.175 FM
Gurwin Techsat 1B 19 Jun 16:09:53 16:15:10 68° 258° (WSW) 16:20:29 435.225 FM
RS-15 19 Jun 16:26:42 16:33:40 17° 351° (N) 16:40:28 29.354 - 29.394 USB, Beacon 29.352 USB
ISS 19 Jun 16:52:16 16:55:16 32° 329° (NNW) 16:58:17 145.800 FM
Uosat F 19 Jun 17:08:54 17:11:57 16° 268° (W) 17:15:02 435.120 FM
TMSAT-1 19 Jun 17:10:07 17:14:37 28° 265° (W) 17:19:08 436.925 FM
AO-7 19 Jun 17:17:47 17:26:07 83° 253° (WSW) 17:34:32 29.400 - 29.500 MHz
KITSAT 1 19 Jun 17:54:52 18:02:57 87° 299° (WNW) 18:11:07 435.175 FM
JAS-1B 19 Jun 18:12:25 18:16:07 16° 62° (ENE) 18:19:35 435.800 - 435.900 CW/SSB
Hamsat 19 Jun 18:23:31 18:26:35 19° 67° (ENE) 18:29:40 145.90 MHz
ISS 19 Jun 18:32:09 18:32:46 10° 348° (NNW) 18:33:22 145.800 FM
RS-15 19 Jun 18:43:27 18:52:00 24° 28° (NNE) 19:00:20 29.354 - 29.394 USB, Beacon 29.352 USB
SO-67 19 Jun 19:02:42 19:04:15 12° 67° (ENE) 19:05:48 435.3500 MHz FM
AO-7 19 Jun 19:15:52 19:20:00 14° 270° (W) 19:24:10 29.400 - 29.500 MHz
MaSat-1 19 Jun 19:16:04 19:21:17 35° 111° (ESE) 19:25:28 437.345 MHz
STRAND 1 19 Jun 19:32:20 19:37:31 74° 103° (ESE) 19:42:39 ?
KITSAT 1 19 Jun 19:53:29 19:59:31 22° 320° (NW) 20:05:37 435.175 FM
Hamsat 19 Jun 19:58:24 20:02:23 36° 263° (W) 20:06:25 145.90 MHz
JAS-1B 19 Jun 19:59:09 20:06:18 77° 256° (WSW) 20:12:24 435.800 - 435.900 CW/SSB
JAS-2 19 Jun 20:12:05 20:15:55 16° 60° (ENE) 20:19:34 435.800 - 435.900 CW/SSB, 435.910 FM
HO-68 19 Jun 20:18:37 20:23:52 23° 59° (ENE) 20:29:08 435.675 MHz FM
SO-67 19 Jun 20:34:02 20:37:20 36° 262° (W) 20:40:40 435.3500 MHz FM
RS-15 19 Jun 20:55:46 21:06:51 71° 56° (NE) 21:17:41 29.354 - 29.394 USB, Beacon 29.352 USB
MaSat-1 19 Jun 20:58:33 21:03:04 26° 299° (WNW) 21:06:46 437.345 MHz
PANSAT 19 Jun 21:01:44 21:02:10 10° 163° (SSE) 21:02:36 not established
STRAND 1 19 Jun 21:13:38 21:16:04 14° 299° (WNW) 21:18:30 ?
Oscar 11 19 Jun 21:40:18 21:44:18 37° 72° (ENE) 21:48:20 145.825 FM, Beacon 2401.500 USB
ISS 19 Jun 21:45:35 21:48:21 24° 28° (NNE) 21:51:07 145.800 FM
JAS-2 19 Jun 21:52:42 22:00:12 86° 75° (ENE) 22:06:56 435.800 - 435.900 CW/SSB, 435.910 FM
HO-68 19 Jun 22:03:48 22:10:54 69° 256° (WSW) 22:18:03 435.675 MHz FM
Saudisat 1A 19 Jun 22:21:52 22:26:24 75° 119° (ESE) 22:31:00 436.775 MHz
PANSAT 19 Jun 22:39:10 22:41:50 18° 175° (S) 22:44:29 not established
OPAL 19 Jun 22:41:01 22:45:56 56° 71° (ENE) 22:50:49 ?

Developed and maintained by Chris Peat, Heavens-Above GmbH. Please read the updated FAQ before sending e-mail. Imprint. DLR
